Location: Morosaglia
(42.4360°N, 9.3069°E)
Time: 22:34:17
(UTC+00:00)

USA 229 DEB - Pass Details

Date: 07 June 2020
Orbit: 983 x 1229 km, 63.4° (Epoch: 24 June)

Event Time Altitude Azimuth Distance (km) Brightness Sun altitude
Rises 01:07:52 0° 324° (NW) 3,968 7.1 -20.3°
Reaches altitude 10° 01:10:31 10° 325° (NW) 3,039 6.4 -20.1°
Maximum altitude 01:17:52 87° 55° (NE) 1,194 3.9 -19.5°
Drops below altitude 10° 01:25:31 10° 145° (SE) 3,162 5.9 -18.8°
Sets 01:28:19 0° 146° (SE) 4,136 6.5 -18.5°
